RYR0599 LEMG-GCRR

Flight info

Callsign RYR0599
Flight time N/A
Altitude 37000
Route PIMOS N869 GALTO UN869 PELAX UB11 MABAP UN869 ADM UG850 DEVLA
Aircraft B38M/M-SDE1FGHILORVWXY/HB1

Departure

Time N/A
Airport Málaga-Costa del Sol Airport (LEMG)

Arrival

Time 2026-05-01 10:26
Airport César Manrique-Lanzarote Airport (GCRR)
Time Latitude Longitude Altitude Speed Heading
2026-05-01 10:26 28.95057 -13.60728 52 ft 0 kts 296°
2026-05-01 10:37 28.95053 -13.60719 53 ft 4 kts 295°
2026-05-01 10:37 28.95042 -13.60691 52 ft 4 kts 294°
2026-05-01 10:38 28.95032 -13.60664 47 ft 4 kts 290°
2026-05-01 10:38 28.95026 -13.60640 47 ft 2 kts 268°
2026-05-01 10:38 28.95029 -13.60628 48 ft 2 kts 225°
2026-05-01 10:38 28.95038 -13.60621 51 ft 2 kts 208°
2026-05-01 10:39 28.95042 -13.60618 50 ft 0 kts 204°
2026-05-01 10:41 28.95008 -13.60636 46 ft 7 kts 204°
2026-05-01 10:42 28.94959 -13.60661 51 ft 9 kts 204°
2026-05-01 10:42 28.94901 -13.60648 51 ft 10 kts 122°
2026-05-01 10:42 28.94875 -13.60598 53 ft 8 kts 131°
2026-05-01 10:42 28.94818 -13.60580 49 ft 9 kts 191°
2026-05-01 10:43 28.94769 -13.60603 49 ft 6 kts 205°
2026-05-01 10:43 28.94724 -13.60627 51 ft 8 kts 205°
2026-05-01 10:43 28.94663 -13.60662 48 ft 12 kts 209°
2026-05-01 10:43 28.94586 -13.60708 45 ft 13 kts 207°
2026-05-01 10:44 28.94511 -13.60753 39 ft 11 kts 207°
2026-05-01 10:44 28.94433 -13.60798 34 ft 13 kts 207°
2026-05-01 10:44 28.94365 -13.60838 33 ft 12 kts 207°
2026-05-01 10:44 28.94288 -13.60882 31 ft 11 kts 207°
2026-05-01 10:45 28.94223 -13.60920 30 ft 9 kts 207°
2026-05-01 10:45 28.94155 -13.60959 29 ft 12 kts 207°
2026-05-01 10:45 28.94078 -13.61003 29 ft 12 kts 207°
2026-05-01 10:45 28.94009 -13.61043 28 ft 9 kts 206°
2026-05-01 10:46 28.93942 -13.61082 27 ft 12 kts 206°
2026-05-01 10:46 28.93867 -13.61125 26 ft 10 kts 206°
2026-05-01 10:46 28.93798 -13.61164 29 ft 12 kts 206°
2026-05-01 10:46 28.93722 -13.61208 26 ft 13 kts 206°
2026-05-01 10:47 28.93652 -13.61204 29 ft 11 kts 130°
2026-05-01 10:47 28.93621 -13.61141 28 ft 10 kts 112°
2026-05-01 10:47 28.93622 -13.61060 26 ft 11 kts 51°
2026-05-01 10:47 28.93646 -13.61042 27 ft 1 kts 26°
2026-05-01 10:48 28.93662 -13.61033 27 ft 9 kts 26°
2026-05-01 10:48 28.93951 -13.60867 31 ft 88 kts 27°
2026-05-01 10:48 28.94732 -13.60418 94 ft 153 kts 26°
2026-05-01 10:48 28.95698 -13.59837 840 ft 164 kts 31°
2026-05-01 10:49 28.96641 -13.59084 1891 ft 165 kts 38°
2026-05-01 10:49 28.97566 -13.58280 2829 ft 172 kts 36°
2026-05-01 10:49 28.98558 -13.57422 3591 ft 189 kts 35°
2026-05-01 10:49 28.99658 -13.56477 4329 ft 208 kts 34°
2026-05-01 10:50 29.00837 -13.55388 5114 ft 228 kts 42°
2026-05-01 10:50 29.01941 -13.53936 5858 ft 253 kts 49°
2026-05-01 10:50 29.03090 -13.52313 6620 ft 272 kts 49°
2026-05-01 10:50 29.04311 -13.50584 7337 ft 288 kts 49°
2026-05-01 10:51 29.05569 -13.48798 8410 ft 288 kts 49°
2026-05-01 10:51 29.06844 -13.46989 9410 ft 296 kts 49°
2026-05-01 10:51 29.08152 -13.45133 10306 ft 302 kts 49°
2026-05-01 10:51 29.09520 -13.43266 11043 ft 314 kts 44°
2026-05-01 10:52 29.11242 -13.41668 11616 ft 324 kts 27°
2026-05-01 10:52 29.13307 -13.40643 12208 ft 332 kts 19°
2026-05-01 10:52 29.15443 -13.39612 12214 ft 333 kts 21°
2026-05-01 10:52 29.17568 -13.38551 12187 ft 333 kts 21°
2026-05-01 10:53 29.19686 -13.37479 12195 ft 333 kts 21°
2026-05-01 10:53 29.21800 -13.36398 12197 ft 333 kts 21°
2026-05-01 10:53 29.23912 -13.35315 12197 ft 333 kts 21°
2026-05-01 10:53 29.26018 -13.34204 12194 ft 334 kts 26°
2026-05-01 10:54 29.27805 -13.32517 12187 ft 337 kts 49°
2026-05-01 10:54 29.29190 -13.30330 12201 ft 339 kts 52°
2026-05-01 10:54 29.30565 -13.28126 12195 ft 339 kts 53°
2026-05-01 10:54 29.31922 -13.25911 12393 ft 342 kts 53°
2026-05-01 10:55 29.33274 -13.23680 13399 ft 340 kts 53°
2026-05-01 10:55 29.34638 -13.21431 14124 ft 349 kts 53°
2026-05-01 10:55 29.36030 -13.19139 14886 ft 351 kts 53°
2026-05-01 10:55 29.37429 -13.16830 15634 ft 355 kts 52°
2026-05-01 10:56 29.38855 -13.14479 16344 ft 360 kts 52°
2026-05-01 10:56 29.40284 -13.12119 17062 ft 363 kts 52°
2026-05-01 10:56 29.41738 -13.09716 17771 ft 367 kts 51°
2026-05-01 10:56 29.43199 -13.07300 18466 ft 371 kts 51°
2026-05-01 10:57 29.44672 -13.04863 19064 ft 375 kts 51°
2026-05-01 10:57 29.46168 -13.02386 19647 ft 378 kts 51°
2026-05-01 10:57 29.47670 -12.99899 20232 ft 381 kts 50°
2026-05-01 10:57 29.49189 -12.97381 20798 ft 385 kts 50°
2026-05-01 10:58 29.50718 -12.94845 21357 ft 389 kts 50°
2026-05-01 10:58 29.52260 -12.92287 21929 ft 392 kts 50°
2026-05-01 10:58 29.53818 -12.89699 22483 ft 395 kts 50°
2026-05-01 10:58 29.55391 -12.87086 23023 ft 399 kts 49°
2026-05-01 10:59 29.56973 -12.84455 23543 ft 402 kts 49°
2026-05-01 10:59 29.58568 -12.81801 24029 ft 405 kts 49°
2026-05-01 10:59 29.60177 -12.79124 24487 ft 408 kts 49°
2026-05-01 10:59 29.61790 -12.76437 24951 ft 410 kts 49°
2026-05-01 11:00 29.63409 -12.73739 25400 ft 412 kts 49°
2026-05-01 11:00 29.65040 -12.71018 25849 ft 414 kts 48°
2026-05-01 11:00 29.66679 -12.68282 26310 ft 416 kts 48°
2026-05-01 11:00 29.68320 -12.65542 26741 ft 418 kts 48°
2026-05-01 11:01 29.69971 -12.62782 27153 ft 420 kts 48°
2026-05-01 11:01 29.71628 -12.60011 27605 ft 422 kts 47°
2026-05-01 11:01 29.73296 -12.57219 28047 ft 423 kts 47°
2026-05-01 11:01 29.74961 -12.54431 28472 ft 425 kts 47°
2026-05-01 11:02 29.76619 -12.51653 28866 ft 427 kts 47°
2026-05-01 11:02 29.78306 -12.48823 29286 ft 429 kts 47°
2026-05-01 11:02 29.80017 -12.45952 29719 ft 430 kts 47°
2026-05-01 11:02 29.81711 -12.43108 30118 ft 431 kts 46°
2026-05-01 11:03 29.83385 -12.40294 30465 ft 433 kts 46°
2026-05-01 11:03 29.85090 -12.37426 30813 ft 434 kts 46°
2026-05-01 11:03 29.86800 -12.34549 31159 ft 435 kts 46°
2026-05-01 11:03 29.88508 -12.31671 31482 ft 437 kts 46°
2026-05-01 11:04 29.90226 -12.28777 31798 ft 438 kts 46°
2026-05-01 11:04 29.91952 -12.25866 32124 ft 440 kts 46°
2026-05-01 11:04 29.93675 -12.22958 32418 ft 441 kts 46°
2026-05-01 11:04 29.95408 -12.20032 32742 ft 442 kts 46°
2026-05-01 11:05 29.97152 -12.17084 33048 ft 444 kts 46°
2026-05-01 11:05 29.98892 -12.14140 33329 ft 446 kts 46°
2026-05-01 11:05 30.00643 -12.11190 33623 ft 446 kts 44°
2026-05-01 11:05 30.02673 -12.08603 33969 ft 429 kts 33°
2026-05-01 11:06 30.04832 -12.06200 34337 ft 431 kts 34°
2026-05-01 11:06 30.06973 -12.03781 34591 ft 431 kts 34°
2026-05-01 11:06 30.09129 -12.01361 34796 ft 434 kts 35°
2026-05-01 11:07 30.13475 -11.96492 35266 ft 436 kts 35°
2026-05-01 11:07 30.15659 -11.94045 35475 ft 438 kts 36°
2026-05-01 11:07 30.17855 -11.91583 35671 ft 440 kts 36°
2026-05-01 11:07 30.20053 -11.89117 35877 ft 442 kts 36°
2026-05-01 11:08 30.21514 -11.87476 36020 ft 443 kts 36°
2026-05-01 11:08 30.24467 -11.84159 36293 ft 444 kts 36°
2026-05-01 11:08 30.28165 -11.80001 36590 ft 447 kts 37°
2026-05-01 11:09 30.30406 -11.77478 36800 ft 448 kts 37°
2026-05-01 11:09 30.32638 -11.74964 36975 ft 450 kts 37°
2026-05-01 11:09 30.34883 -11.72434 37136 ft 451 kts 37°
2026-05-01 11:10 30.39397 -11.67342 37487 ft 454 kts 38°
2026-05-01 11:10 30.41658 -11.64788 37633 ft 456 kts 38°
2026-05-01 11:10 30.43934 -11.62216 37791 ft 457 kts 38°
2026-05-01 11:10 30.46215 -11.59636 37938 ft 458 kts 38°
2026-05-01 11:11 30.48502 -11.57048 38099 ft 460 kts 38°
2026-05-01 11:11 30.50789 -11.54458 38183 ft 461 kts 39°
2026-05-01 11:11 30.55371 -11.49264 38194 ft 461 kts 39°
2026-05-01 11:12 30.59936 -11.44082 38179 ft 462 kts 39°
2026-05-01 11:12 30.64562 -11.38824 38178 ft 463 kts 39°
2026-05-01 11:13 30.69146 -11.33605 38162 ft 465 kts 39°
2026-05-01 11:13 30.73761 -11.28344 38182 ft 466 kts 40°
2026-05-01 11:14 30.78387 -11.23062 38157 ft 467 kts 40°
2026-05-01 11:14 30.83026 -11.17759 38167 ft 468 kts 40°
2026-05-01 11:15 30.87670 -11.12442 38161 ft 469 kts 40°
2026-05-01 11:15 30.92323 -11.07106 38180 ft 470 kts 40°
2026-05-01 11:16 30.96984 -11.01755 38158 ft 471 kts 40°
2026-05-01 11:16 31.01648 -10.96392 38168 ft 472 kts 41°
2026-05-01 11:17 31.06322 -10.91009 38160 ft 472 kts 41°
2026-05-01 11:17 31.11003 -10.85612 38167 ft 473 kts 41°
2026-05-01 11:18 31.15683 -10.80207 38159 ft 474 kts 41°
2026-05-01 11:18 31.20364 -10.74792 38161 ft 474 kts 41°
2026-05-01 11:19 31.25052 -10.69362 38152 ft 475 kts 41°
2026-05-01 11:19 31.29750 -10.63911 38157 ft 476 kts 41°
2026-05-01 11:20 31.34436 -10.58468 38151 ft 476 kts 41°
2026-05-01 11:20 31.39137 -10.52998 38163 ft 477 kts 41°
2026-05-01 11:21 31.43845 -10.47512 38160 ft 477 kts 41°
2026-05-01 11:21 31.48514 -10.42063 38162 ft 478 kts 42°
2026-05-01 11:22 31.53218 -10.36566 38152 ft 477 kts 42°
2026-05-01 11:22 31.57916 -10.31066 38159 ft 478 kts 42°
2026-05-01 11:23 31.62619 -10.25553 38152 ft 478 kts 42°
2026-05-01 11:23 31.67355 -10.19992 38161 ft 478 kts 42°
2026-05-01 11:24 31.72058 -10.14462 38150 ft 479 kts 42°
2026-05-01 11:25 31.79080 -10.06189 38159 ft 479 kts 42°
2026-05-01 11:25 31.86150 -9.97842 38159 ft 480 kts 42°
2026-05-01 11:26 31.93210 -9.89486 38154 ft 481 kts 42°
2026-05-01 11:27 31.97919 -9.83901 38159 ft 481 kts 43°
2026-05-01 11:27 32.02628 -9.78309 38157 ft 481 kts 43°
2026-05-01 11:28 32.07347 -9.72696 38159 ft 482 kts 43°
2026-05-01 11:28 32.12067 -9.67072 38159 ft 482 kts 43°
2026-05-01 11:29 32.19145 -9.58624 38148 ft 483 kts 43°
2026-05-01 11:30 32.26223 -9.50154 38150 ft 483 kts 43°
2026-05-01 11:30 32.30946 -9.44492 38151 ft 483 kts 43°
2026-05-01 11:31 32.35668 -9.38823 38153 ft 484 kts 43°
2026-05-01 11:31 32.40383 -9.33152 38144 ft 484 kts 43°
2026-05-01 11:32 32.45108 -9.27460 38146 ft 484 kts 43°
2026-05-01 11:32 32.49830 -9.21764 38163 ft 485 kts 43°
2026-05-01 11:33 32.54540 -9.16072 38161 ft 485 kts 43°
2026-05-01 11:33 32.59229 -9.10398 38162 ft 485 kts 43°
2026-05-01 11:34 32.63942 -9.04684 38165 ft 485 kts 43°
2026-05-01 11:34 32.68661 -8.98954 38162 ft 485 kts 43°
2026-05-01 11:35 32.73376 -8.93220 38153 ft 485 kts 43°
2026-05-01 11:35 32.78097 -8.87469 38155 ft 485 kts 43°
2026-05-01 11:36 32.82805 -8.81726 38157 ft 486 kts 43°
2026-05-01 11:36 32.87519 -8.75964 38147 ft 486 kts 43°
2026-05-01 11:37 32.92232 -8.70198 38158 ft 486 kts 43°
2026-05-01 11:37 32.96939 -8.64429 38153 ft 486 kts 43°
2026-05-01 11:38 33.01655 -8.58640 38158 ft 486 kts 43°
2026-05-01 11:38 33.06337 -8.52883 38153 ft 486 kts 43°
2026-05-01 11:39 33.11045 -8.47086 38154 ft 487 kts 43°
2026-05-01 11:39 33.15746 -8.41288 38149 ft 487 kts 43°
2026-05-01 11:40 33.20684 -8.35812 38145 ft 478 kts 28°
2026-05-01 11:40 33.26299 -8.31561 38158 ft 480 kts 28°
2026-05-01 11:41 33.31943 -8.27287 38160 ft 480 kts 28°
2026-05-01 11:41 33.37580 -8.23034 38156 ft 480 kts 28°
2026-05-01 11:42 33.43223 -8.18770 37994 ft 479 kts 26°
2026-05-01 11:42 33.46036 -8.16644 38156 ft 479 kts 26°
2026-05-01 11:42 33.48853 -8.14512 38160 ft 478 kts 26°
2026-05-01 11:43 33.54479 -8.10249 38166 ft 477 kts 26°
2026-05-01 11:43 33.60083 -8.05996 38165 ft 477 kts 26°
2026-05-01 11:44 33.68481 -7.99610 38170 ft 477 kts 26°
2026-05-01 11:44 33.74055 -7.95364 38163 ft 476 kts 26°
2026-05-01 11:45 33.79644 -7.91100 38174 ft 476 kts 26°
2026-05-01 11:45 33.85236 -7.86826 38166 ft 476 kts 26°
2026-05-01 11:46 33.90818 -7.82553 38165 ft 476 kts 27°
2026-05-01 11:46 33.96409 -7.78267 38171 ft 476 kts 27°
2026-05-01 11:47 34.01990 -7.73982 38171 ft 476 kts 27°
2026-05-01 11:47 34.07562 -7.69697 38174 ft 476 kts 27°
2026-05-01 11:48 34.13147 -7.65394 38166 ft 475 kts 27°
2026-05-01 11:48 34.18719 -7.61096 38170 ft 475 kts 27°
2026-05-01 11:49 34.24286 -7.56794 38174 ft 475 kts 27°
2026-05-01 11:49 34.29856 -7.52482 38173 ft 475 kts 27°
2026-05-01 11:50 34.35420 -7.48170 38172 ft 475 kts 27°
2026-05-01 11:50 34.40989 -7.43845 38173 ft 475 kts 26°
2026-05-01 11:51 34.46512 -7.39550 38174 ft 475 kts 26°
2026-05-01 11:51 34.52068 -7.35222 38178 ft 475 kts 26°
2026-05-01 11:52 34.57613 -7.30896 38177 ft 475 kts 26°
2026-05-01 11:52 34.63165 -7.26558 38173 ft 474 kts 26°
2026-05-01 11:53 34.68716 -7.22213 38176 ft 474 kts 26°
2026-05-01 11:53 34.74260 -7.17866 38175 ft 474 kts 26°
2026-05-01 11:54 34.79820 -7.13500 38175 ft 474 kts 26°
2026-05-01 11:54 34.85367 -7.09137 38175 ft 474 kts 26°
2026-05-01 11:55 34.90909 -7.04771 38180 ft 474 kts 26°
2026-05-01 11:55 34.96457 -7.00393 38176 ft 474 kts 26°
2026-05-01 11:56 35.01979 -6.96028 38175 ft 474 kts 26°
2026-05-01 11:56 35.06591 -6.92377 38176 ft 475 kts 26°
2026-05-01 11:57 35.12132 -6.87985 38168 ft 475 kts 26°
2026-05-01 11:57 35.17671 -6.83588 38173 ft 476 kts 26°
2026-05-01 11:58 35.23231 -6.79167 38174 ft 476 kts 26°
2026-05-01 11:59 35.31553 -6.72511 38163 ft 478 kts 28°
2026-05-01 11:59 35.34093 -6.69835 38147 ft 488 kts 44°
2026-05-01 11:59 35.36089 -6.66412 38183 ft 496 kts 53°
2026-05-01 12:00 35.41493 -6.55595 38158 ft 499 kts 55°
2026-05-01 12:01 35.46920 -6.44673 38156 ft 498 kts 53°
2026-05-01 12:01 35.50558 -6.37489 38152 ft 498 kts 53°
2026-05-01 12:02 35.54203 -6.30263 38154 ft 498 kts 53°
2026-05-01 12:02 35.57846 -6.23025 38151 ft 498 kts 53°
2026-05-01 12:03 35.61486 -6.15780 38155 ft 498 kts 53°
2026-05-01 12:03 35.65093 -6.08583 38152 ft 498 kts 53°
2026-05-01 12:04 35.68724 -6.01325 38159 ft 498 kts 53°
2026-05-01 12:04 35.72350 -5.94061 38156 ft 498 kts 53°
2026-05-01 12:05 35.75558 -5.86448 38166 ft 502 kts 59°
2026-05-01 12:05 35.80126 -5.74860 38157 ft 502 kts 59°
2026-05-01 12:06 35.83176 -5.67112 38155 ft 501 kts 58°
2026-05-01 12:06 35.86290 -5.59448 38150 ft 501 kts 59°
2026-05-01 12:07 35.89380 -5.51796 38158 ft 502 kts 59°
2026-05-01 12:07 35.92488 -5.44076 38160 ft 502 kts 59°
2026-05-01 12:08 35.95590 -5.36354 38165 ft 503 kts 59°
2026-05-01 12:08 35.98687 -5.28625 38169 ft 503 kts 58°
2026-05-01 12:09 36.01869 -5.20939 38159 ft 503 kts 57°
2026-05-01 12:09 36.05087 -5.13253 38166 ft 503 kts 57°